Airfield :
LOGIN :

Register | Disclaimer

   EN    FR    IT 

 










Legend :    VFR   Marginal VFR   IFR   Intensive IFR   Very Intensive IFR
Visi :
Ceiling :
>= 8 km
>= 3000ft
5 to 8 km
1000 to 3000 ft
1500m to 5 km
500 to 1000 ft
800 to 1500m
200 to 500 ft
< 800m
< 200 ft
Symbols :   Thunderstorms  Fog  Heavy snow  Heavy precipitations  Wind > 20 kt
SIGMETs :     Misc.  Thunderstorms  Icing  Turbulence  Mountain Waves  Volcanic Ashes






- Airport Elevation : 39 ft
- IATA code : SUF


LICA - Lamezia Terme

CURRENT METAR :
  • 250750Z AUTO 27018KT 9999 BKN039/// 13/06 Q1010

EXPIRED METARs :
  • 250720Z AUTO 26017KT 9999 FEW038/// 13/06 Q1010
  • 250650Z AUTO 27017KT 9999 SCT038/// 13/07 Q1010
  • 250620Z AUTO 27019KT 9999 BKN041/// 13/06 Q1010
  • 250550Z AUTO 29011KT 9999 BKN039/// 12/07 Q1009
  • 250520Z AUTO 30011KT 9999 BKN039/// 12/07 Q1009

TAF TAF LICA
Valid from the 25 at 06:00 until the 26 at 06:00 UTC


250500Z 2506/2606 27018G28KT 9999 SCT030
BECMG 2508/2510 27018KT
TEMPO 2521/2606 TSRA



MET'MAP, your aeronautical weather chart ! - Copyright ORBIFLY December 2007 - Disclaimer

ORBIFLY MET'MAP TEAM :

Programming & Development : Alexandra Zaïnal
Concept & original design : Baudouin d'Aumeries
Assistance for programming : Marc-Olivier Méhu
Technical & hardware support : Manuel Goepfert

Contact : metmap@orbifly.com




SOURCES & CREDITS :

   NOAA